Location: Sabalos
(43.2860°N, 0.1414°E)
Time: 10:19:34
(UTC+00:00)

OAO 2 Rocket - Pass Details

Date: 05 July 2020
Orbit: 676 x 746 km, 35.0° (Epoch: 05 August)

Event Time Altitude Azimuth Distance (km) Brightness Sun altitude
Rises 21:39:51 0° 252° (WSW) 3,164 6.9 -16.2°
Reaches altitude 10° 21:42:28 10° 243° (WSW) 2,246 6.0 -16.4°
Maximum altitude 21:47:13 34° 180° (S) 1,212 4.1 -16.9°
Enters shadow 21:48:28 30° 152° (SSE) 1,312 4.1 -17.0°
